Terminal Aerodrome Forecast
Issued by NWS

Home | Current Version | Previous Version | Text Only | Print | Product List | Glossary On
Versions: 1 2 3 4 5 6 7 8 9 10 11 12 13 14 15
000
FTUS45 KMSO 260532
TAFSMN
TAF
KSMN 260532Z 2606/2706 20015G22KT P6SM VCSH BKN090
     FM262100 26015G25KT P6SM -SHRA BKN100
      AMD LTD TO CLD VIS AND WIND=

USA.gov is the U.S. government's official web portal to all federal, state and local government web resources and services.